Regional Weather Roundup
Issued by NWS Jackson, KY

Home | Current Version | Previous Version | Graphics & Text | Print | Product List | Glossary On
Versions: 1 2 3 4 5 6 7 8 9 10 11 12 13 14 15 16 17 18 19 20 21 22 23 24 25 26 27 28 29 30 31 32 33 34 35 36 37 38 39 40 41 42 43 44 45 46 47 48 49 50
000
ASUS43 KJKL 040910
RWRJKL

EAST KENTUCKY HOURLY WEATHER ROUNDUP
NATIONAL WEATHER SERVICE JACKSON KY
500 AM EDT MON MAY 04 2015

NOTE: "FAIR" INDICATES FEW OR NO CLOUDS BELOW 12,000 FEET WITH
NO SIGNIFICANT WEATHER AND/OR OBSTRUCTIONS TO VISIBILITY.

* THESE REPORTS ARE NOT UNDER NWS QUALITY CONTROL AND MAY NOT
  REPORT WEATHER SUCH AS PRECIPITATION AND FOG.

KYZ079-080-083-085-087-088-110-112-115-119-120-041000
...EASTERN KENTUCKY...

CITY           SKY/WX    TMP DP  RH WIND       PRES   REMARKS
JACKSON        CLEAR     59  45  59 VRB3      30.18R
LONDON         CLEAR     52  47  83 CALM      30.19R
SOMERSET*      CLEAR     50  50 100 CALM      30.19R
MONTICELLO*    CLEAR     49  49 100 CALM      30.21R
MIDDLESBORO*   CLEAR     47  46  99 CALM      30.23R
HARLAN APT*    SUNNY     46  46 100 CALM      30.22R
HAZARD APT*    SUNNY     55  46  71 CALM      30.19R
BLACK MTN*       N/A     55  43  62 S6          N/A
PIKEVILLE APT* CLEAR     57  43  58 S5        30.19R
BIG SANDY*     SUNNY     57  46  66 SW3       30.18R
MOREHEAD APT*  MOSUNNY   54  48  82 SE5       30.18R
$$

KYZ035-036-041-042-044-050-067-078-099-041000
...CENTRAL KENTUCKY...

CITY           SKY/WX    TMP DP  RH WIND       PRES   REMARKS
MT STERLING*   CLEAR     55  46  71 SW7       30.18R
FLEMING/MASON* CLEAR     55  48  76 S8        30.16S
DANVILLE*      PTCLDY    52  46  82 SW3       30.18R
RICHMOND*      CLEAR     61  46  59 S6        30.16R
LEXINGTON      CLEAR     58  48  69 S7        30.16R
FRANKFORT      PTCLDY    56  48  74 S5        30.13S
$$

KYZ091>093-OHZ055-061-077-WVZ005-015-034-035-042-041000
...SOUTHERN OHIO/WEST VIRGINIA...

CITY           SKY/WX    TMP DP  RH WIND       PRES   REMARKS
COVINGTON      PTCLDY    58  48  69 S7        30.12R
COLUMBUS       CLEAR     53  48  83 CALM      30.11S
DAYTON         CLEAR     62  47  57 S9        30.11R
WILMINGTON     CLEAR     57  44  62 S5        30.12S
HUNTINGTON     CLEAR     49  46  90 CALM      30.15R
CHARLESTON     CLEAR     48  44  86 CALM      30.16S
PINEVILLE*     CLEAR     44  44  99 MISG      30.26S
BECKLEY        CLEAR     50  42  74 CALM      30.23R
BLUEFIELD      CLEAR     59  42  53 SW5       30.25R
$$

VAZ002-007-008-TNZ017-027-036-066-071-041000
...SOUTHWEST VIRGINIA/EAST TENNESSEE...

CITY           SKY/WX    TMP DP  RH WIND       PRES   REMARKS
WISE*          CLEAR     54  37  54 SW5       30.25R
JONESVILLE*    SUNNY     45  45 100 CALM      30.25R
ABINGDON*      CLOUDY    55  47  75 E3        30.24R
BRISTOL        PTCLDY    52  49  89 CALM      30.22R
KNOXVILLE      PTCLDY    53  49  86 N3        30.19R
OAK RIDGE      CLEAR     52  49  89 CALM      30.22R
CROSSVILLE     CLEAR     53  45  74 CALM      30.22R
NASHVILLE      PTCLDY    57  50  77 S5        30.16R
$$

...KEY TO REMARKS...
VSB - VISIBILITY IN MILES
WCI - WIND CHILL INDEX
HX  - HEAT INDEX

$$



USA.gov is the U.S. government's official web portal to all federal, state and local government web resources and services.